Location: Katherine
(14.4670°S, 132.2670°E)
Time: 16:57:30
(UTC+09:30)

ISS - Visible Passes

Search period start: 20 February 2018 00:00
Search period end: 02 March 2018 00:00
Orbit: 403 x 407 km, 51.6° (Epoch: 20 February)

Date Brightness Start Highest point End Pass type
(mag) Time Alt. Az. Time Alt. Az. Time Alt. Az.
20 Feb -2.5 05:46:35 10° SSW 05:49:45 42° SE 05:52:53 10° NE visible
21 Feb -0.9 04:55:14 10° S 04:57:31 17° SE 04:59:48 10° E visible
21 Feb -0.9 19:47:51 10° W 19:50:19 20° SW 19:52:49 10° S visible
22 Feb -3.5 05:40:28 28° WSW 05:41:44 42° NW 05:44:51 10° NNE visible
